Weather History for Lawrence, KS

Change the Weather History Date:

Thursday, January 31, 2013

  Actual Average Record
Temperature  
Mean Temperature 15 °F 31 °F  
Max Temperature 25 °F 42 °F 71 °F (2009)
Min Temperature 4 °F 20 °F 4 °F (2013)
Degree Days  
Heating Degree Days 50 34  
Month to date heating degree days 997 1104  
Since 1 July heating degree days 2937 3151  
Cooling Degree Days 0 0  
Month to date cooling degree days 0 0  
Year to date cooling degree days 0 0  
Moisture  
Dew Point 8 °F    
Average Humidity 69    
Maximum Humidity 88    
Minimum Humidity 49    
Precipitation  
Precipitation 0.00 in 0.05 in 0.16 in (2003)
Month to date precipitation 0.96 1.01  
Year to date precipitation 0.96 1.01  
Sea Level Pressure  
Sea Level Pressure 30.25 in    
Wind  
Wind Speed 10 mph (NNW)    
Max Wind Speed 33 mph    
Max Gust Speed 41 mph    
Visibility 10 miles    
Events      
T = Trace of Precipitation, MM = Missing Value Source: NWS Daily Summary

Daily Weather History Graph

Daily Weather History Graph

Search for Another Location

Airport:

Trip Planner

Search our weather history database for the weather conditions in past years. The results will help you decide how hot, cold, wet, or windy it might be!

Date:

Astronomy

Jan. 31, 2013 Rise Set
Actual Time 7:27 AM CST 5:41 PM CST
Civil Twilight 6:59 AM CST 6:09 PM CST
Nautical Twilight 6:27 AM CST 6:41 PM CST
Astronomical Twilight 5:56 AM CST 7:12 PM CST
Moon 10:41 PM CST (1/31) 9:30 AM CST (1/31)
Length of Visible Light 11h 09m
Length of Day
10h 13m
Waning Gibbous, 79% of the Moon is Illuminated
Jan 31
Waning Gibbous
Feb 3
Last Quarter
Feb 10
New
Feb 17
First Quarter
Feb 25
Full

Hourly Weather History & Observations

Time (CST) Temp. Windchill Dew Point Humidity Pressure Visibility Wind Dir Wind Speed Gust Speed Precip Events Conditions
12:52 AM 18.0 °F - 12.9 °F 81% 30.00 in 9.0 mi Calm Calm - N/A   Clear
1:52 AM 17.1 °F - 12.9 °F 84% 30.01 in 8.0 mi Calm Calm - N/A   Partly Cloudy
2:52 AM 21.0 °F - 16.0 °F 81% 30.01 in 8.0 mi Calm Calm - N/A   Overcast
3:52 AM 25.0 °F - 19.0 °F 78% 30.00 in 9.0 mi Calm Calm - N/A   Overcast
4:52 AM 23.0 °F - 19.0 °F 85% 29.99 in 8.0 mi Calm Calm - N/A   Clear
5:52 AM 23.0 °F 18.4 °F 18.0 °F 81% 30.02 in 8.0 mi NW 3.5 mph - N/A   Overcast
6:52 AM 23.0 °F 14.7 °F 17.1 °F 78% 30.06 in 9.0 mi NW 6.9 mph - N/A   Mostly Cloudy
7:52 AM 21.0 °F 9.3 °F 12.9 °F 71% 30.10 in 10.0 mi North 11.5 mph - N/A   Scattered Clouds
8:52 AM 21.0 °F 8.1 °F 12.9 °F 71% 30.15 in 10.0 mi North 13.8 mph - N/A   Mostly Cloudy
9:52 AM 21.9 °F 8.7 °F 12.0 °F 66% 30.19 in 10.0 mi NNW 15.0 mph 21.9 mph N/A   Scattered Clouds
10:52 AM 19.9 °F 3.9 °F 7.0 °F 57% 30.24 in 10.0 mi NNW 20.7 mph 26.5 mph N/A   Overcast
11:52 AM 21.0 °F 4.3 °F 8.1 °F 57% 30.27 in 10.0 mi NNW 24.2 mph 33.4 mph N/A   Overcast
12:52 PM 21.9 °F 5.1 °F 8.1 °F 55% 30.29 in 10.0 mi NW 25.3 mph 34.5 mph N/A   Mostly Cloudy
2:52 PM 19.0 °F 2.7 °F 3.9 °F 52% 30.33 in 10.0 mi NW 20.7 mph - N/A   Clear
3:52 PM 18.0 °F 3.6 °F 5.0 °F 57% 30.36 in 10.0 mi NNW 15.0 mph 20.7 mph N/A   Scattered Clouds
4:52 PM 18.0 °F 0.9 °F 3.0 °F 52% 30.38 in 10.0 mi NNW 21.9 mph 26.5 mph N/A   Clear
5:52 PM 14.0 °F -1.4 °F 1.9 °F 59% 30.41 in 10.0 mi NNW 15.0 mph - N/A   Clear
6:52 PM 12.9 °F -0.9 °F 1.0 °F 59% 30.44 in 10.0 mi NNW 11.5 mph - N/A   Clear
7:52 PM 8.1 °F -2.0 °F 1.0 °F 73% 30.46 in 10.0 mi North 5.8 mph - N/A   Clear
8:52 PM 10.0 °F - 1.0 °F 67% 30.51 in 10.0 mi Calm Calm - N/A   Clear
9:52 PM 8.1 °F 1.4 °F -0.0 °F 70% 30.53 in 10.0 mi NW 3.5 mph - N/A   Clear
10:52 PM 6.1 °F - -0.0 °F 76% 30.53 in 10.0 mi Calm Calm - N/A   Clear
11:52 PM 6.1 °F - -0.0 °F 76% 30.53 in 10.0 mi Calm Calm - N/A   Clear